N3368K KDTW-KFSM

Flight info

Callsign N3368K
Flight time 1h 58m
Altitude 40000
Route BARII3 SINKR VHP ENL FAM ADDIE
Aircraft C25C/L-SDFGRWY/S

Departure

Time 2026-04-14 12:48
Airport Detroit Metropolitan Wayne County Airport (KDTW)

Arrival

Time 2026-04-14 14:46
Airport Fort Smith Regional Airport (KFSM)
Time Latitude Longitude Altitude Speed Heading
2026-04-14 12:31 42.21354 -83.33263 643 ft 0 kts 28°
2026-04-14 12:39 42.21351 -83.33266 643 ft 2 kts 28°
2026-04-14 12:39 42.21337 -83.33278 643 ft 2 kts 71°
2026-04-14 12:39 42.21341 -83.33286 643 ft 0 kts 149°
2026-04-14 12:42 42.21333 -83.33281 643 ft 4 kts 149°
2026-04-14 12:42 42.21281 -83.33263 643 ft 11 kts 209°
2026-04-14 12:42 42.21277 -83.33389 643 ft 18 kts 283°
2026-04-14 12:42 42.21367 -83.33501 643 ft 17 kts 329°
2026-04-14 12:43 42.21471 -83.33522 643 ft 16 kts 29°
2026-04-14 12:43 42.21503 -83.33420 643 ft 11 kts 118°
2026-04-14 12:43 42.21497 -83.33400 643 ft 0 kts 95°
2026-04-14 12:44 42.21498 -83.33393 643 ft 3 kts 70°
2026-04-14 12:44 42.21534 -83.33371 643 ft 10 kts 64°
2026-04-14 12:44 42.21540 -83.33243 643 ft 15 kts 90°
2026-04-14 12:45 42.21666 -83.33115 643 ft 14 kts
2026-04-14 12:45 42.21758 -83.33119 645 ft 13 kts 357°
2026-04-14 12:45 42.21845 -83.33147 644 ft 14 kts 310°
2026-04-14 12:45 42.21858 -83.33270 643 ft 13 kts 269°
2026-04-14 12:46 42.21856 -83.33355 642 ft 0 kts 269°
2026-04-14 12:46 42.21856 -83.33377 642 ft 8 kts 269°
2026-04-14 12:46 42.21844 -83.33495 642 ft 14 kts 236°
2026-04-14 12:47 42.21828 -83.33514 642 ft 0 kts 208°
2026-04-14 12:47 42.21827 -83.33515 642 ft 2 kts 208°
2026-04-14 12:47 42.21579 -83.33700 643 ft 91 kts 211°
2026-04-14 12:47 42.20779 -83.34284 959 ft 164 kts 208°
2026-04-14 12:48 42.19601 -83.35097 1798 ft 212 kts 210°
2026-04-14 12:48 42.18232 -83.35914 3133 ft 219 kts 211°
2026-04-14 12:48 42.16750 -83.36714 4057 ft 238 kts 209°
2026-04-14 12:48 42.15170 -83.37501 5098 ft 247 kts 208°
2026-04-14 12:49 42.13522 -83.38269 6283 ft 252 kts 201°
2026-04-14 12:49 42.11841 -83.38909 7437 ft 250 kts 206°
2026-04-14 12:49 42.10200 -83.39651 8672 ft 248 kts 204°
2026-04-14 12:49 42.08539 -83.40316 9810 ft 250 kts 204°
2026-04-14 12:50 42.06864 -83.40976 10802 ft 255 kts 200°
2026-04-14 12:50 42.03388 -83.42119 12681 ft 262 kts 201°
2026-04-14 12:50 42.01602 -83.42705 13621 ft 267 kts 201°
2026-04-14 12:51 41.99784 -83.43313 14445 ft 272 kts 200°
2026-04-14 12:51 41.97929 -83.43917 15234 ft 277 kts 201°
2026-04-14 12:51 41.96039 -83.44555 16047 ft 281 kts 202°
2026-04-14 12:51 41.94245 -83.45542 16845 ft 281 kts 211°
2026-04-14 12:52 41.92424 -83.46585 17674 ft 287 kts 208°
2026-04-14 12:52 41.90567 -83.47623 18435 ft 292 kts 209°
2026-04-14 12:52 41.88681 -83.48691 19151 ft 296 kts 209°
2026-04-14 12:52 41.86776 -83.49783 19890 ft 299 kts 210°
2026-04-14 12:53 41.84848 -83.50873 20633 ft 303 kts 209°
2026-04-14 12:53 41.82898 -83.51987 21369 ft 306 kts 210°
2026-04-14 12:53 41.80921 -83.53101 22105 ft 310 kts 210°
2026-04-14 12:53 41.78919 -83.54242 22833 ft 313 kts 210°
2026-04-14 12:54 41.76896 -83.55384 23538 ft 318 kts 210°
2026-04-14 12:54 41.74852 -83.56546 24139 ft 321 kts 210°
2026-04-14 12:54 41.72779 -83.57713 24768 ft 323 kts 210°
2026-04-14 12:54 41.70727 -83.58877 25381 ft 326 kts 210°
2026-04-14 12:55 41.68693 -83.60219 25994 ft 326 kts 214°
2026-04-14 12:55 41.66648 -83.61574 26602 ft 330 kts 212°
2026-04-14 12:55 41.64569 -83.62926 27188 ft 333 kts 213°
2026-04-14 12:55 41.62481 -83.64294 27757 ft 336 kts 213°
2026-04-14 12:56 41.60375 -83.65696 28313 ft 339 kts 213°
2026-04-14 12:56 41.58263 -83.67087 28948 ft 339 kts 213°
2026-04-14 12:56 41.56147 -83.68478 29676 ft 338 kts 213°
2026-04-14 12:56 41.54040 -83.69862 30332 ft 336 kts 214°
2026-04-14 12:57 41.51948 -83.71239 30953 ft 334 kts 214°
2026-04-14 12:57 41.49872 -83.72606 31565 ft 331 kts 214°
2026-04-14 12:57 41.47836 -83.73939 32157 ft 329 kts 214°
2026-04-14 12:57 41.45787 -83.75288 32787 ft 327 kts 214°
2026-04-14 12:58 41.43757 -83.76616 33401 ft 324 kts 214°
2026-04-14 12:58 41.41743 -83.77938 33995 ft 322 kts 214°
2026-04-14 12:58 41.39741 -83.79250 34492 ft 320 kts 215°
2026-04-14 12:58 41.37741 -83.80561 34841 ft 322 kts 215°
2026-04-14 12:59 41.35726 -83.81880 35272 ft 322 kts 215°
2026-04-14 12:59 41.33719 -83.83187 35742 ft 320 kts 216°
2026-04-14 12:59 41.31725 -83.84489 36199 ft 319 kts 215°
2026-04-14 12:59 41.29736 -83.85790 36652 ft 318 kts 216°
2026-04-14 13:00 41.27748 -83.87084 37092 ft 317 kts 216°
2026-04-14 13:00 41.25774 -83.88373 37546 ft 315 kts 216°
2026-04-14 13:00 41.23807 -83.89654 37966 ft 315 kts 216°
2026-04-14 13:00 41.21843 -83.90934 38399 ft 314 kts 216°
2026-04-14 13:01 41.19887 -83.92205 38849 ft 312 kts 216°
2026-04-14 13:01 41.17942 -83.93465 39184 ft 311 kts 216°
2026-04-14 13:01 41.15998 -83.94736 39457 ft 312 kts 216°
2026-04-14 13:01 41.14070 -83.95986 39783 ft 313 kts 216°
2026-04-14 13:02 41.12075 -83.97282 39943 ft 319 kts 216°
2026-04-14 13:02 41.08005 -83.99925 40003 ft 337 kts 215°
2026-04-14 13:03 41.03653 -84.02740 40013 ft 354 kts 215°
2026-04-14 13:03 40.99130 -84.05663 40009 ft 368 kts 214°
2026-04-14 13:04 40.94486 -84.08656 40004 ft 379 kts 214°
2026-04-14 13:04 40.89684 -84.11748 39997 ft 389 kts 214°
2026-04-14 13:05 40.84711 -84.14776 39985 ft 398 kts 212°
2026-04-14 13:05 40.79663 -84.17825 39975 ft 399 kts 212°
2026-04-14 13:06 40.74602 -84.20870 39996 ft 399 kts 212°
2026-04-14 13:06 40.69546 -84.23910 39999 ft 399 kts 212°
2026-04-14 13:07 40.64496 -84.26942 40009 ft 399 kts 212°
2026-04-14 13:07 40.59432 -84.29978 40025 ft 399 kts 212°
2026-04-14 13:08 40.54386 -84.33031 40021 ft 397 kts 215°
2026-04-14 13:08 40.49813 -84.36890 40021 ft 387 kts 225°
2026-04-14 13:09 40.45939 -84.41665 39982 ft 378 kts 234°
2026-04-14 13:09 40.42839 -84.47179 39994 ft 373 kts 243°
2026-04-14 13:10 40.40561 -84.53244 40003 ft 369 kts 251°
2026-04-14 13:10 40.38613 -84.59479 39999 ft 369 kts 251°
2026-04-14 13:11 40.36666 -84.65716 39993 ft 369 kts 251°
2026-04-14 13:11 40.34718 -84.71936 39988 ft 369 kts 251°
2026-04-14 13:12 40.32765 -84.78153 39993 ft 369 kts 251°
2026-04-14 13:12 40.30823 -84.84329 39997 ft 369 kts 251°
2026-04-14 13:13 40.28865 -84.90539 39997 ft 369 kts 251°
2026-04-14 13:13 40.26906 -84.96743 39997 ft 369 kts 251°
2026-04-14 13:14 40.24941 -85.02949 39989 ft 369 kts 250°
2026-04-14 13:14 40.22971 -85.09151 39987 ft 369 kts 250°
2026-04-14 13:15 40.21000 -85.15341 39973 ft 368 kts 250°
2026-04-14 13:15 40.19042 -85.21485 39965 ft 368 kts 250°
2026-04-14 13:16 40.17069 -85.27662 39956 ft 368 kts 250°
2026-04-14 13:16 40.15092 -85.33835 39974 ft 368 kts 250°
2026-04-14 13:17 40.13115 -85.39994 39969 ft 368 kts 250°
2026-04-14 13:17 40.11132 -85.46153 39991 ft 368 kts 250°
2026-04-14 13:18 40.09147 -85.52307 39996 ft 368 kts 250°
2026-04-14 13:18 40.07158 -85.58463 39980 ft 368 kts 250°
2026-04-14 13:19 40.05164 -85.64627 39977 ft 368 kts 250°
2026-04-14 13:19 40.03168 -85.70774 39989 ft 368 kts 250°
2026-04-14 13:20 40.01167 -85.76924 40000 ft 368 kts 250°
2026-04-14 13:20 39.99164 -85.83062 40009 ft 368 kts 250°
2026-04-14 13:21 39.97154 -85.89215 40020 ft 370 kts 250°
2026-04-14 13:21 39.95128 -85.95405 40013 ft 372 kts 250°
2026-04-14 13:22 39.93092 -86.01610 40011 ft 372 kts 250°
2026-04-14 13:22 39.91069 -86.07757 40013 ft 372 kts 250°
2026-04-14 13:23 39.89032 -86.13935 40013 ft 371 kts 250°
2026-04-14 13:23 39.86993 -86.20105 40013 ft 371 kts 250°
2026-04-14 13:24 39.85298 -86.25225 40011 ft 370 kts 250°
2026-04-14 13:24 39.82236 -86.34451 40010 ft 370 kts 250°
2026-04-14 13:25 39.79756 -86.40337 40009 ft 373 kts 242°
2026-04-14 13:26 39.74270 -86.51784 39991 ft 372 kts 242°
2026-04-14 13:26 39.71527 -86.57487 40008 ft 372 kts 242°
2026-04-14 13:27 39.68775 -86.63204 40022 ft 372 kts 242°
2026-04-14 13:27 39.66026 -86.68898 40034 ft 372 kts 242°
2026-04-14 13:28 39.63270 -86.74597 40037 ft 373 kts 242°
2026-04-14 13:28 39.60511 -86.80297 40036 ft 373 kts 242°
2026-04-14 13:29 39.57749 -86.85993 40040 ft 373 kts 242°
2026-04-14 13:29 39.55003 -86.91645 40034 ft 373 kts 242°
2026-04-14 13:30 39.52222 -86.97354 40017 ft 372 kts 242°
2026-04-14 13:30 39.49456 -87.03023 40009 ft 372 kts 242°
2026-04-14 13:31 39.46692 -87.08682 40002 ft 372 kts 242°
2026-04-14 13:31 39.43921 -87.14345 39992 ft 372 kts 242°
2026-04-14 13:32 39.41146 -87.20006 40004 ft 372 kts 242°
2026-04-14 13:32 39.38386 -87.25624 40004 ft 372 kts 242°
2026-04-14 13:33 39.35608 -87.31265 39987 ft 372 kts 242°
2026-04-14 13:33 39.32826 -87.36910 39998 ft 372 kts 242°
2026-04-14 13:34 39.28649 -87.45365 39987 ft 372 kts 242°
2026-04-14 13:35 39.25861 -87.50995 39994 ft 372 kts 242°
2026-04-14 13:35 39.23069 -87.56622 39996 ft 372 kts 242°
2026-04-14 13:36 39.20277 -87.62245 40000 ft 372 kts 242°
2026-04-14 13:36 39.17481 -87.67864 40006 ft 372 kts 242°
2026-04-14 13:37 39.14686 -87.73468 40015 ft 372 kts 241°
2026-04-14 13:37 39.11904 -87.79034 40015 ft 372 kts 241°
2026-04-14 13:38 39.09105 -87.84624 40002 ft 371 kts 241°
2026-04-14 13:38 39.06305 -87.90212 39998 ft 371 kts 241°
2026-04-14 13:39 39.03502 -87.95795 39996 ft 371 kts 241°
2026-04-14 13:39 39.00698 -88.01372 39998 ft 371 kts 241°
2026-04-14 13:40 38.97888 -88.06948 39989 ft 371 kts 241°
2026-04-14 13:40 38.95079 -88.12511 40018 ft 371 kts 241°
2026-04-14 13:41 38.92267 -88.18071 40026 ft 371 kts 241°
2026-04-14 13:41 38.89452 -88.23628 40030 ft 371 kts 241°
2026-04-14 13:42 38.86641 -88.29170 40019 ft 370 kts 241°
2026-04-14 13:42 38.83829 -88.34704 40018 ft 370 kts 241°
2026-04-14 13:43 38.81010 -88.40241 40018 ft 370 kts 240°
2026-04-14 13:43 38.78211 -88.45728 40015 ft 370 kts 240°
2026-04-14 13:44 38.75390 -88.51247 40025 ft 370 kts 240°
2026-04-14 13:44 38.72562 -88.56771 40028 ft 370 kts 240°
2026-04-14 13:45 38.69741 -88.62277 40023 ft 370 kts 240°
2026-04-14 13:45 38.66915 -88.67782 40030 ft 369 kts 240°
2026-04-14 13:46 38.64093 -88.73270 40015 ft 369 kts 240°
2026-04-14 13:46 38.61267 -88.78752 40023 ft 369 kts 240°
2026-04-14 13:47 38.58434 -88.84238 40024 ft 370 kts 240°
2026-04-14 13:47 38.55599 -88.89721 40030 ft 370 kts 240°
2026-04-14 13:48 38.52768 -88.95189 40031 ft 369 kts 240°
2026-04-14 13:48 38.49949 -89.00626 40038 ft 369 kts 240°
2026-04-14 13:49 38.47109 -89.06093 40033 ft 369 kts 240°
2026-04-14 13:49 38.44269 -89.11547 40032 ft 369 kts 240°
2026-04-14 13:50 38.41295 -89.16910 40039 ft 372 kts 235°
2026-04-14 13:50 38.37896 -89.21893 40027 ft 373 kts 234°
2026-04-14 13:51 38.34487 -89.26886 40027 ft 373 kts 234°
2026-04-14 13:51 38.31073 -89.31857 40027 ft 372 kts 234°
2026-04-14 13:52 38.27666 -89.36821 40029 ft 372 kts 234°
2026-04-14 13:52 38.24262 -89.41771 40025 ft 372 kts 234°
2026-04-14 13:53 38.20859 -89.46712 40033 ft 371 kts 234°
2026-04-14 13:53 38.17454 -89.51647 40028 ft 371 kts 233°
2026-04-14 13:54 38.14046 -89.56576 40029 ft 371 kts 233°
2026-04-14 13:54 38.10654 -89.61476 40030 ft 372 kts 233°
2026-04-14 13:55 38.07239 -89.66405 40040 ft 372 kts 233°
2026-04-14 13:55 38.03798 -89.71363 40028 ft 372 kts 233°
2026-04-14 13:56 38.00394 -89.76260 40021 ft 372 kts 233°
2026-04-14 13:56 37.96971 -89.81174 40023 ft 372 kts 233°
2026-04-14 13:57 37.93549 -89.86079 40021 ft 372 kts 233°
2026-04-14 13:57 37.90121 -89.90986 40017 ft 372 kts 233°
2026-04-14 13:58 37.86688 -89.95895 40017 ft 372 kts 233°
2026-04-14 13:58 37.83244 -90.00812 40027 ft 373 kts 233°
2026-04-14 13:59 37.79801 -90.05719 40038 ft 373 kts 233°
2026-04-14 13:59 37.76356 -90.10620 40038 ft 373 kts 233°
2026-04-14 14:00 37.72913 -90.15511 40037 ft 373 kts 233°
2026-04-14 14:00 37.69464 -90.20402 40041 ft 372 kts 233°
2026-04-14 14:01 37.66268 -90.25448 40043 ft 368 kts 240°
2026-04-14 14:01 37.63398 -90.30856 40044 ft 369 kts 240°
2026-04-14 14:02 37.60543 -90.36241 40044 ft 369 kts 240°
2026-04-14 14:02 37.57703 -90.41579 40051 ft 369 kts 239°
2026-04-14 14:03 37.54841 -90.46952 40052 ft 369 kts 240°
2026-04-14 14:03 37.51979 -90.52319 40052 ft 369 kts 240°
2026-04-14 14:04 37.49115 -90.57683 40056 ft 369 kts 240°
2026-04-14 14:04 37.46249 -90.63040 40036 ft 369 kts 239°
2026-04-14 14:05 37.43380 -90.68393 40035 ft 369 kts 239°
2026-04-14 14:05 37.40504 -90.73749 40035 ft 369 kts 239°
2026-04-14 14:06 37.37625 -90.79103 40031 ft 369 kts 239°
2026-04-14 14:06 37.34746 -90.84451 40032 ft 369 kts 239°
2026-04-14 14:07 37.31888 -90.89751 40035 ft 369 kts 239°
2026-04-14 14:07 37.29005 -90.95088 40024 ft 369 kts 239°
2026-04-14 14:08 37.26117 -91.00422 40029 ft 369 kts 239°
2026-04-14 14:08 37.23231 -91.05746 40028 ft 369 kts 239°
2026-04-14 14:09 37.20345 -91.11064 40011 ft 369 kts 239°
2026-04-14 14:09 37.17924 -91.15518 40025 ft 369 kts 239°
2026-04-14 14:10 37.15049 -91.20800 40027 ft 369 kts 239°
2026-04-14 14:10 37.12160 -91.26100 40026 ft 368 kts 239°
2026-04-14 14:11 37.09261 -91.31406 40026 ft 368 kts 239°
2026-04-14 14:11 37.06365 -91.36699 40023 ft 369 kts 239°
2026-04-14 14:12 37.03463 -91.41995 40027 ft 368 kts 239°
2026-04-14 14:12 37.00564 -91.47279 40030 ft 368 kts 239°
2026-04-14 14:13 36.97659 -91.52567 40015 ft 368 kts 239°
2026-04-14 14:13 36.94756 -91.57842 40026 ft 368 kts 239°
2026-04-14 14:14 36.91848 -91.63114 40031 ft 368 kts 239°
2026-04-14 14:14 36.88962 -91.68339 40027 ft 368 kts 239°
2026-04-14 14:15 36.86054 -91.73597 40023 ft 368 kts 239°
2026-04-14 14:15 36.83143 -91.78853 40026 ft 368 kts 239°
2026-04-14 14:16 36.80234 -91.84098 40024 ft 367 kts 239°
2026-04-14 14:16 36.77322 -91.89342 40071 ft 367 kts 239°
2026-04-14 14:17 36.72951 -91.97190 40048 ft 367 kts 238°
2026-04-14 14:17 36.70035 -92.02420 40041 ft 367 kts 238°
2026-04-14 14:18 36.67118 -92.07643 40039 ft 367 kts 238°
2026-04-14 14:18 36.64200 -92.12858 40032 ft 367 kts 238°
2026-04-14 14:19 36.61278 -92.18069 40017 ft 367 kts 238°
2026-04-14 14:19 36.58361 -92.23267 39995 ft 367 kts 238°
2026-04-14 14:20 36.56902 -92.25872 39593 ft 376 kts 238°
2026-04-14 14:20 36.55395 -92.28548 39117 ft 372 kts 238°
2026-04-14 14:20 36.53933 -92.31136 38620 ft 360 kts 238°
2026-04-14 14:20 36.52516 -92.33654 38128 ft 351 kts 238°
2026-04-14 14:21 36.51132 -92.36111 37672 ft 343 kts 238°
2026-04-14 14:21 36.49773 -92.38528 37228 ft 339 kts 238°
2026-04-14 14:21 36.48424 -92.40914 36787 ft 337 kts 238°
2026-04-14 14:21 36.47075 -92.43304 36339 ft 337 kts 238°
2026-04-14 14:22 36.45727 -92.45692 35903 ft 338 kts 238°
2026-04-14 14:22 36.44372 -92.48086 35459 ft 341 kts 238°
2026-04-14 14:22 36.42996 -92.50522 35009 ft 347 kts 238°
2026-04-14 14:22 36.41596 -92.52989 34540 ft 352 kts 238°
2026-04-14 14:23 36.40180 -92.55491 34082 ft 357 kts 238°
2026-04-14 14:23 36.38741 -92.58026 33577 ft 361 kts 238°
2026-04-14 14:23 36.37288 -92.60588 33095 ft 364 kts 237°
2026-04-14 14:23 36.35822 -92.63165 32607 ft 367 kts 237°
2026-04-14 14:24 36.34345 -92.65765 32119 ft 371 kts 237°
2026-04-14 14:24 36.32846 -92.68403 31626 ft 377 kts 237°
2026-04-14 14:24 36.31345 -92.71037 31126 ft 382 kts 237°
2026-04-14 14:24 36.29784 -92.73779 30609 ft 386 kts 237°
2026-04-14 14:25 36.28245 -92.76473 30093 ft 391 kts 236°
2026-04-14 14:25 36.26671 -92.79235 29538 ft 394 kts 236°
2026-04-14 14:25 36.25080 -92.82016 29016 ft 395 kts 236°
2026-04-14 14:25 36.23493 -92.84796 28497 ft 396 kts 236°
2026-04-14 14:26 36.21900 -92.87577 27982 ft 397 kts 236°
2026-04-14 14:26 36.20302 -92.90370 27454 ft 397 kts 236°
2026-04-14 14:26 36.18702 -92.93161 26940 ft 398 kts 236°
2026-04-14 14:26 36.17092 -92.95970 26412 ft 399 kts 236°
2026-04-14 14:27 36.15482 -92.98774 25890 ft 401 kts 236°
2026-04-14 14:27 36.13868 -93.01586 25361 ft 402 kts 237°
2026-04-14 14:27 36.12266 -93.04367 24837 ft 388 kts 236°
2026-04-14 14:27 36.10726 -93.07043 24335 ft 375 kts 237°
2026-04-14 14:28 36.09223 -93.09652 23831 ft 371 kts 237°
2026-04-14 14:28 36.07733 -93.12245 23312 ft 369 kts 237°
2026-04-14 14:28 36.06251 -93.14808 22820 ft 365 kts 236°
2026-04-14 14:28 36.04775 -93.17373 22334 ft 367 kts 237°
2026-04-14 14:29 36.03282 -93.19953 21844 ft 370 kts 236°
2026-04-14 14:29 36.01786 -93.22550 21352 ft 373 kts 236°
2026-04-14 14:29 36.00278 -93.25144 20866 ft 369 kts 236°
2026-04-14 14:29 35.98803 -93.27698 20383 ft 364 kts 236°
2026-04-14 14:30 35.97334 -93.30231 19908 ft 360 kts 236°
2026-04-14 14:30 35.95887 -93.32739 19432 ft 357 kts 237°
2026-04-14 14:30 35.94446 -93.35207 18956 ft 354 kts 236°
2026-04-14 14:30 35.93014 -93.37675 18497 ft 353 kts 237°
2026-04-14 14:31 35.91591 -93.40131 18002 ft 351 kts 236°
2026-04-14 14:31 35.90040 -93.42407 17491 ft 352 kts 227°
2026-04-14 14:31 35.88319 -93.44527 17027 ft 349 kts 228°
2026-04-14 14:31 35.86636 -93.46681 16563 ft 348 kts 228°
2026-04-14 14:32 35.84973 -93.48839 16109 ft 347 kts 228°
2026-04-14 14:32 35.83289 -93.50981 15648 ft 348 kts 227°
2026-04-14 14:32 35.81610 -93.53119 15191 ft 348 kts 227°
2026-04-14 14:32 35.79921 -93.55264 14733 ft 348 kts 227°
2026-04-14 14:33 35.78235 -93.57418 14270 ft 349 kts 227°
2026-04-14 14:33 35.76546 -93.59563 13803 ft 349 kts 227°
2026-04-14 14:33 35.74863 -93.61712 13324 ft 348 kts 227°
2026-04-14 14:33 35.73172 -93.63850 12861 ft 345 kts 227°
2026-04-14 14:34 35.69935 -93.67967 11980 ft 326 kts 226°
2026-04-14 14:34 35.68381 -93.69940 11555 ft 309 kts 227°
2026-04-14 14:34 35.66947 -93.71755 11164 ft 285 kts 226°
2026-04-14 14:35 35.65617 -93.73443 10799 ft 267 kts 227°
2026-04-14 14:35 35.64356 -93.75041 10437 ft 254 kts 226°
2026-04-14 14:35 35.63170 -93.76544 10114 ft 245 kts 227°
2026-04-14 14:35 35.61978 -93.78049 9780 ft 244 kts 226°
2026-04-14 14:36 35.60806 -93.79541 9446 ft 242 kts 227°
2026-04-14 14:36 35.59635 -93.81011 9135 ft 241 kts 226°
2026-04-14 14:36 35.58473 -93.82489 8811 ft 239 kts 227°
2026-04-14 14:36 35.57312 -93.83949 8496 ft 238 kts 226°
2026-04-14 14:37 35.56166 -93.85405 8187 ft 237 kts 227°
2026-04-14 14:37 35.55013 -93.86849 7868 ft 236 kts 226°
2026-04-14 14:37 35.53875 -93.88292 7556 ft 235 kts 227°
2026-04-14 14:37 35.52751 -93.89702 7253 ft 233 kts 227°
2026-04-14 14:38 35.51627 -93.91130 6946 ft 232 kts 228°
2026-04-14 14:38 35.50497 -93.92540 6644 ft 231 kts 227°
2026-04-14 14:38 35.49386 -93.93953 6321 ft 230 kts 228°
2026-04-14 14:38 35.48265 -93.95354 6022 ft 230 kts 227°
2026-04-14 14:39 35.47155 -93.96762 5713 ft 228 kts 227°
2026-04-14 14:39 35.46043 -93.98144 5410 ft 225 kts 224°
2026-04-14 14:39 35.44954 -93.99505 5121 ft 223 kts 224°
2026-04-14 14:39 35.43858 -94.00837 4828 ft 221 kts 229°
2026-04-14 14:40 35.42816 -94.02235 4526 ft 222 kts 226°
2026-04-14 14:40 35.41740 -94.03581 4232 ft 219 kts 229°
2026-04-14 14:40 35.40686 -94.04924 3948 ft 219 kts 223°
2026-04-14 14:40 35.39586 -94.06228 3661 ft 220 kts 226°
2026-04-14 14:41 35.38531 -94.07589 3378 ft 218 kts 225°
2026-04-14 14:41 35.37486 -94.08905 3090 ft 213 kts 228°
2026-04-14 14:41 35.36858 -94.10505 2812 ft 207 kts 255°
2026-04-14 14:41 35.36641 -94.12059 2735 ft 161 kts 255°
2026-04-14 14:42 35.36483 -94.13335 2695 ft 145 kts 256°
2026-04-14 14:42 35.36332 -94.14536 2677 ft 142 kts 255°
2026-04-14 14:42 35.36181 -94.15754 2681 ft 147 kts 256°
2026-04-14 14:42 35.36025 -94.17024 2685 ft 153 kts 256°
2026-04-14 14:43 35.35857 -94.18321 2681 ft 154 kts 257°
2026-04-14 14:43 35.35700 -94.19596 2698 ft 154 kts 255°
2026-04-14 14:43 35.35541 -94.20894 2670 ft 155 kts 253°
2026-04-14 14:43 35.35369 -94.22224 2496 ft 161 kts 254°
2026-04-14 14:44 35.35196 -94.23615 2287 ft 168 kts 255°
2026-04-14 14:44 35.35012 -94.25045 2075 ft 172 kts 255°
2026-04-14 14:44 35.34831 -94.26512 1855 ft 175 kts 255°
2026-04-14 14:44 35.34644 -94.27995 1624 ft 177 kts 256°
2026-04-14 14:45 35.34457 -94.29467 1408 ft 174 kts 257°
2026-04-14 14:45 35.34274 -94.30918 1183 ft 168 kts 253°
2026-04-14 14:45 35.34100 -94.32277 1010 ft 146 kts 259°
2026-04-14 14:45 35.33961 -94.33418 809 ft 129 kts 258°
2026-04-14 14:46 35.33832 -94.34481 627 ft 123 kts 257°
2026-04-14 14:46 35.33708 -94.35471 476 ft 114 kts 256°
2026-04-14 14:46 35.33590 -94.36312 438 ft 84 kts 253°
2026-04-14 14:46 35.33525 -94.36867 444 ft 44 kts 265°
2026-04-14 14:47 35.33493 -94.37119 446 ft 12 kts 265°
2026-04-14 14:47 35.33536 -94.37187 448 ft 11 kts 347°
2026-04-14 14:47 35.33585 -94.37246 449 ft 11 kts 270°
2026-04-14 14:47 35.33629 -94.37317 449 ft 12 kts 316°
2026-04-14 14:48 35.33638 -94.37344 449 ft 0 kts 268°